Regional Weather Roundup
Issued by NWS

Home | Current Version | Previous Version | Graphics & Text | Print | Product List | Glossary On
Versions: 1 2 3 4 5 6 7 8 9 10 11 12 13 14 15 16 17 18 19 20 21 22 23 24 25 26 27 28 29 30 31 32 33 34 35 36 37 38 39 40 41 42 43 44 45 46 47 48 49 50
560
ASUS43 KLMK 251310
RWRKY
KENTUCKY REGIONAL WEATHER ROUNDUP
NATIONAL WEATHER SERVICE LOUISVILLE KY
900 AM EDT TUE JUL 25 2017

NOTE "FAIR" INDICATES FEW OR NO CLOUDS BELOW 12,000 FEET
WITH NO SIGNIFICANT WEATHER AND/OR OBSTRUCTIONS TO VISIBILITY.

KYZ001>023-026-027-061>063-070>075-251400-
WESTERN AND SOUTH CENTRAL KENTUCKY

CITY           SKY/WX    TMP DP  RH WIND       PRES   REMARKS
PADUCAH        PTSUNNY   78  73  84 E3        30.08R
HENDERSON      PTSUNNY   74  69  85 E8        30.12R
OWENSBORO      SUNNY     75  67  76 E12       30.12R
HOPKINSVILLE   SUNNY     78  73  84 CALM      30.10R
BOWLING GREEN  SUNNY     77  72  84 E7        30.12R
GLASGOW        CLOUDY    73  71  94 NE7       30.13R
$$

KYZ024-025-028>034-038-045-046-053-251400-
NORTH CENTRAL KENTUCKY

CITY           SKY/WX    TMP DP  RH WIND       PRES   REMARKS
LOUISVILLE/SDF MOSUNNY   73  62  68 E8        30.16R
LOUISVILLE/LOU MOSUNNY   73  63  70 E7        30.16S
FORT KNOX      SUNNY     70  62  75 NE9       30.14R
$$

KYZ035>037-039>044-047>052-055>060-089>105-251400-
NORTHEAST KENTUCKY

CITY           SKY/WX    TMP DP  RH WIND       PRES   REMARKS
LEXINGTON      SUNNY     70  59  68 E14       30.18R
COVINGTON      SUNNY     68  60  75 E10       30.20R
FRANKFORT      MOSUNNY   71  61  70 E8        30.17R
$$

KYZ054-064>069-076>088-106>120-251400-
SOUTHEAST KENTUCKY

CITY           SKY/WX    TMP DP  RH WIND       PRES   REMARKS
JACKSON        CLOUDY    66  62  87 CALM      30.19R
LONDON         CLOUDY    72  67  84 NE6       30.16R
SOMERSET       CLOUDY    70  70 100 CALM      30.17R
MIDDLESBORO    CLOUDY    71  69  96 CALM      30.16R
MONTICELLO     PTSUNNY   73  71  93 NW6       30.17R
$$





USA.gov is the U.S. government's official web portal to all federal, state and local government web resources and services.